Location: Milton Keynes
(52.0316°N, 0.7531°W)
Time: 16:25:17
(UTC+01:00)

GENESIS II - Pass Details

Date: 28 January 2019
Orbit: 483 x 547 km, 64.5° (Epoch: 17 April)

Event Time Altitude Azimuth Distance (km) Brightness Sun altitude
Rises 05:22:56 0° 166° (SSE) 2,602 8.0 -22.4°
Reaches altitude 10° 05:26:15 10° 135° (SE) 1,741 7.5 -21.9°
Maximum altitude 05:27:47 12° 111° (ESE) 1,625 7.7 -21.6°
Drops below altitude 10° 05:29:20 10° 88° (E) 1,762 8.1 -21.4°
Sets 05:32:44 0° 58° (ENE) 2,675 8.7 -20.9°
